#timestamp,LO_Frequency,Hit,StdDev 
1509764415.6,286047007.1,N
1509764435.5,286047008.8,Y
1509764455.3,286047003.9,P
1509764475.1,286047002.5,P
1509764495.9,286046998.1,N
1509764515.7,286047000.8,N
1509764535.5,286047002.0,N
1509764555.3,286047000.4,N
1509764575.2,286047001.6,N
1509764595.0,286047004.3,N
1509764595.9,286047004.3,N
1509764615.8,286047003.7,N
1509764635.6,286047002.6,N
1509764655.4,286047002.8,N
1509764675.3,286047001.6,N
1509764695.1,286047002.4,N
1509764696.0,286047002.4,N
1509764715.8,286046999.8,N
1509764735.7,286046998.5,N
1509764755.5,286046999.6,N
1509764775.3,286046993.5,Y
1509764795.2,286046989.8,P
1509764815.9,286046989.7,N
1509764835.7,286046989.0,N
1509764855.6,286046991.6,N
1509764875.4,286046987.3,N
1509764895.2,286046986.9,N
1509764915.1,286046987.8,N
1509764916.0,286046987.8,N
1509764935.8,286046986.4,Y
1509764955.6,286046992.3,P
1509764975.5,286046989.7,P
1509764995.3,286046983.8,P
1509765015.2,286046985.0,Y
1509765035.9,286046994.0,P
1509765055.7,286046995.8,N
1509765075.6,286046995.5,N
1509765095.4,286046994.8,N
1509765115.2,286046994.4,N
1509765135.1,286046991.7,Y
1509765136.0,286046991.7,P
1509765155.8,286047000.8,N
1509765175.6,286047000.9,N
1509765195.5,286046999.1,N
1509765215.3,286047002.2,N
1509765235.1,286047004.5,N
1509765255.9,286047008.2,N
1509765275.7,286047004.1,N
1509765295.5,286047002.8,N
1509765315.4,286047000.3,N
1509765335.2,286046998.9,N
1509765355.0,286046997.2,N
1509765355.9,286046997.2,N
1509765375.8,286046996.8,N
1509765395.6,286046998.8,N
1509765415.4,286046998.3,N
1509765435.3,286046997.6,N
1509765455.1,286046995.9,N
1509765475.8,286046995.8,N
1509765495.7,286046996.0,N
1509765515.5,286046999.5,N
1509765535.3,286047005.1,N
1509765555.2,286047007.1,N
1509765575.0,286047003.7,N
1509765575.9,286047003.7,N
1509765595.7,286047000.2,N
1509765615.6,286046996.6,N
1509765635.4,286046994.9,N
1509765655.2,286046997.2,N
1509765675.1,286047000.1,N
1509765676.0,286047000.1,N
1509765695.8,286047000.1,N
1509765715.7,286047000.3,N
1509765735.5,286047002.8,N
1509765755.3,286046999.7,N
1509765775.1,286047001.3,N
1509765795.9,286047002.0,N
1509765815.7,286047002.7,N
1509765835.5,286047001.9,N
1509765855.4,286046998.5,N
1509765875.2,286046999.0,N
1509765895.1,286046998.6,N
1509765896.0,286046998.6,N
1509765915.8,286047001.0,N
1509765935.6,286046999.2,N
1509765955.5,286046999.1,N
1509765975.3,286047001.0,N
1509765995.1,286046997.6,N
1509766015.9,286046998.9,N
1509766035.7,286047000.7,N
1509766055.5,286046996.0,N
1509766075.3,286046997.1,N
1509766095.2,286047000.6,N
1509766115.0,286047002.5,N
1509766115.9,286047002.5,N
1509766135.8,286047002.6,N
1509766155.6,286047003.7,N
1509766175.4,286047003.2,N
1509766195.3,286047006.8,Y
1509766215.1,286047004.9,P
1509766216.0,286047004.9,N
1509766235.8,286047006.5,N
1509766255.7,286047012.4,Y
1509766275.5,286047004.1,P
1509766295.3,286047003.2,P
1509766315.2,286047003.5,P
1509766335.0,286047001.6,Y
1509766335.9,286047001.6,P
1509766355.8,286046997.0,N
1509766375.6,286046999.0,N
1509766395.4,286046997.1,N
1509766415.3,286046995.3,N
1509766435.1,286046997.1,N
1509766436.0,286046997.1,N
1509766455.8,286046998.1,N
1509766475.7,286047000.9,N
1509766495.5,286047001.3,N
1509766515.3,286047004.1,N
1509766535.2,286047004.2,N
1509766555.9,286046999.7,N
1509766575.7,286047002.3,N
1509766595.6,286047003.6,N
1509766615.4,286047004.2,N
1509766635.2,286047002.0,N
1509766655.1,286047004.2,N
1509766656.0,286047004.2,N
1509766675.8,286047003.5,N
1509766695.6,286047005.2,N
1509766715.5,286047002.9,N
1509766735.3,286047007.1,N
1509766755.1,286047009.2,N
1509766775.9,286047010.7,Y
1509766795.7,286047006.5,P
1509766815.6,286047005.4,N
1509766835.4,286047005.2,N
1509766855.2,286047004.7,N
1509766875.1,286047008.8,Y
1509766876.0,286047008.8,P
1509766895.8,286047001.6,N
1509766915.6,286046999.7,N
1509766935.5,286046999.9,N
1509766955.3,286047001.6,N
1509766975.1,286047004.4,N
1509766995.9,286047002.0,N
1509767015.7,286047001.5,N
1509767035.5,286047003.6,N
1509767055.4,286047003.7,N
1509767075.2,286047004.3,N
1509767095.0,286047001.4,N
1509767095.9,286047001.4,N
1509767115.8,286047001.4,N
1509767135.6,286047005.7,N
1509767155.4,286047007.5,Y
1509767175.3,286047003.3,P
1509767195.1,286046999.7,N
1509767215.8,286046998.9,N
1509767235.7,286046995.9,N
1509767255.5,286046992.6,N
1509767275.3,286046990.1,N
1509767295.2,286046991.8,N
1509767315.0,286046993.6,N
1509767315.9,286046993.6,N
1509767335.8,286046993.8,N
1509767355.6,286046993.3,N
1509767375.4,286046994.5,N
1509767395.3,286046997.2,N
1509767415.1,286046996.2,N
1509767416.0,286046996.2,N
1509767435.8,286046996.4,N
1509767455.7,286046992.7,N
1509767475.5,286046992.4,N
1509767495.3,286046994.8,N
1509767515.2,286046994.6,N
1509767535.9,286046992.1,N
1509767555.7,286046987.3,Y
1509767575.6,286046991.9,P
1509767595.4,286046996.2,N
1509767615.2,286046989.2,P
1509767635.1,286046992.1,N
1509767636.0,286046992.1,Y
1509767655.8,286046998.2,P
1509767675.6,286047002.1,N
1509767695.5,286047007.3,N
1509767715.3,286047004.2,N
1509767735.1,286047003.2,N
1509767755.9,286047003.9,N
1509767775.7,286047001.0,N
1509767795.5,286046999.7,N
1509767815.4,286047004.1,N
1509767835.2,286046999.6,N
1509767855.0,286046997.0,N
1509767855.9,286046997.0,N
1509767875.8,286047000.3,N
1509767895.6,286047001.7,N
1509767915.4,286047000.4,N
1509767935.3,286046997.6,N
1509767955.1,286046997.1,N
1509767975.8,286046995.5,N
1509767995.7,286046993.8,N
